Time,TemperatureF,DewpointF,PressureIn,WindDirection,WindDirectionDegrees,WindSpeedMPH,WindSpeedGustMPH,Humidity,HourlyPrecipIn,Conditions,Clouds,dailyrainin,SoftwareType,DateUTC
2013-01-26 00:02:00,39.0,29.0,30.34,NNW,337,0.0,0.0,66,0.00,,,0.00,,2013-01-26 06:02:00,
2013-01-26 00:12:00,39.0,29.0,30.34,NNW,337,0.0,0.0,66,0.00,,,0.00,,2013-01-26 06:12:00,
2013-01-26 00:21:00,39.0,27.0,30.33,NNW,347,0.0,1.0,62,0.00,,,0.00,,2013-01-26 06:21:00,
2013-01-26 00:31:00,40.0,28.0,30.33,North,350,0.0,1.0,62,0.00,,,0.00,,2013-01-26 06:31:00,
2013-01-26 00:41:00,40.0,28.0,30.33,North,350,0.0,1.0,62,0.00,,,0.00,,2013-01-26 06:41:00,
2013-01-26 00:52:00,40.0,28.0,30.33,North,350,0.0,0.0,61,0.00,,,0.00,,2013-01-26 06:52:00,
2013-01-26 01:01:00,41.0,28.0,30.33,NE,44,0.0,1.0,60,0.00,,,0.00,,2013-01-26 07:01:00,
2013-01-26 01:12:00,41.0,28.0,30.33,NE,44,0.0,1.0,60,0.00,,,0.00,,2013-01-26 07:12:00,
2013-01-26 01:21:00,41.0,28.0,30.33,NE,44,0.0,1.0,60,0.00,,,0.00,,2013-01-26 07:21:00,
2013-01-26 01:33:00,40.0,27.0,30.33,NNE,27,0.0,2.0,60,0.00,,,0.00,,2013-01-26 07:33:00,
2013-01-26 01:41:00,40.0,27.0,30.33,NNE,27,0.0,2.0,60,0.00,,,0.00,,2013-01-26 07:41:00,
2013-01-26 01:52:00,40.0,27.0,30.33,NE,39,0.0,2.0,60,0.00,,,0.00,,2013-01-26 07:52:00,
2013-01-26 02:02:00,40.0,27.0,30.33,NE,52,0.0,2.0,60,0.00,,,0.00,,2013-01-26 08:02:00,
2013-01-26 02:11:00,40.0,27.0,30.33,NE,52,0.0,2.0,60,0.00,,,0.00,,2013-01-26 08:11:00,
2013-01-26 02:21:00,40.0,27.0,30.33,NE,52,0.0,2.0,60,0.00,,,0.00,,2013-01-26 08:21:00,
2013-01-26 02:31:00,39.0,27.0,30.32,NE,45,0.0,1.0,62,0.00,,,0.00,,2013-01-26 08:31:00,
2013-01-26 02:42:00,39.0,27.0,30.32,NE,45,0.0,1.0,62,0.00,,,0.00,,2013-01-26 08:42:00,
2013-01-26 02:53:00,38.0,27.0,30.32,NE,35,0.0,0.0,64,0.00,,,0.00,,2013-01-26 08:53:00,
2013-01-26 03:02:00,37.0,27.0,30.32,NE,34,0.0,0.0,66,0.00,,,0.00,,2013-01-26 09:02:00,
2013-01-26 03:11:00,37.0,27.0,30.32,NE,34,0.0,0.0,66,0.00,,,0.00,,2013-01-26 09:11:00,
2013-01-26 03:22:00,37.0,27.0,30.32,NE,34,0.0,0.0,66,0.00,,,0.00,,2013-01-26 09:22:00,
2013-01-26 03:32:00,37.0,27.0,30.31,NE,34,0.0,0.0,68,0.00,,,0.00,,2013-01-26 09:32:00,
2013-01-26 03:42:00,37.0,27.0,30.31,NE,34,0.0,0.0,68,0.00,,,0.00,,2013-01-26 09:42:00,
2013-01-26 03:51:00,37.0,27.0,30.30,NE,39,0.0,0.0,68,0.00,,,0.00,,2013-01-26 09:51:00,
2013-01-26 04:01:00,37.0,27.0,30.29,NE,45,0.0,0.0,68,0.00,,,0.00,,2013-01-26 10:01:00,
2013-01-26 04:12:00,37.0,27.0,30.29,NE,45,0.0,0.0,68,0.00,,,0.00,,2013-01-26 10:12:00,
2013-01-26 04:21:00,37.0,27.0,30.29,NE,45,0.0,0.0,68,0.00,,,0.00,,2013-01-26 10:21:00,
2013-01-26 04:31:00,37.0,27.0,30.29,NNE,20,0.0,2.0,68,0.00,,,0.00,,2013-01-26 10:31:00,
2013-01-26 04:42:00,37.0,27.0,30.29,NNE,20,0.0,2.0,68,0.00,,,0.00,,2013-01-26 10:42:00,
2013-01-26 04:52:00,37.0,28.0,30.29,NE,46,0.0,2.0,69,0.00,,,0.00,,2013-01-26 10:52:00,
2013-01-26 05:01:00,37.0,27.0,30.29,ENE,60,0.0,3.0,68,0.00,,,0.00,,2013-01-26 11:01:00,
2013-01-26 05:12:00,37.0,27.0,30.29,ENE,60,0.0,3.0,68,0.00,,,0.00,,2013-01-26 11:12:00,
2013-01-26 05:22:00,37.0,28.0,30.29,NE,39,0.0,2.0,69,0.00,,,0.00,,2013-01-26 11:22:00,
2013-01-26 05:32:00,37.0,28.0,30.29,NE,35,0.0,1.0,69,0.00,,,0.00,,2013-01-26 11:32:00,
2013-01-26 05:42:00,37.0,28.0,30.29,NE,35,0.0,1.0,69,0.00,,,0.00,,2013-01-26 11:42:00,
2013-01-26 05:52:00,35.0,27.0,30.30,NE,34,0.0,0.0,72,0.00,,,0.00,,2013-01-26 11:52:00,
2013-01-26 06:02:00,34.0,27.0,30.30,NE,34,0.0,0.0,74,0.00,,,0.00,,2013-01-26 12:02:00,
2013-01-26 06:12:00,34.0,27.0,30.30,NE,34,0.0,0.0,74,0.00,,,0.00,,2013-01-26 12:12:00,
2013-01-26 06:22:00,33.0,26.0,30.30,NE,34,0.0,0.0,76,0.00,,,0.00,,2013-01-26 12:22:00,
2013-01-26 06:33:00,33.0,27.0,30.30,NE,34,0.0,0.0,77,0.00,,,0.00,,2013-01-26 12:33:00,
2013-01-26 06:42:00,33.0,27.0,30.30,NE,34,0.0,0.0,77,0.00,,,0.00,,2013-01-26 12:42:00,
2013-01-26 06:52:00,32.0,26.0,30.30,NE,34,0.0,0.0,79,0.00,,,0.00,,2013-01-26 12:52:00,
2013-01-26 07:03:00,32.0,27.0,30.31,NE,34,0.0,0.0,80,0.00,,,0.00,,2013-01-26 13:03:00,
2013-01-26 07:12:00,32.0,27.0,30.31,NE,34,0.0,0.0,80,0.00,,,0.00,,2013-01-26 13:12:00,
2013-01-26 07:22:00,31.0,26.0,30.32,NE,34,0.0,0.0,81,0.00,,,0.00,,2013-01-26 13:22:00,
2013-01-26 07:32:00,30.0,25.0,30.32,NE,34,0.0,0.0,82,0.00,,,0.00,,2013-01-26 13:32:00,
2013-01-26 07:42:00,30.0,25.0,30.32,NE,34,0.0,0.0,82,0.00,,,0.00,,2013-01-26 13:42:00,
2013-01-26 07:52:00,30.0,25.0,30.32,NE,34,0.0,0.0,82,0.00,,,0.00,,2013-01-26 13:52:00,
2013-01-26 08:03:00,30.0,26.0,30.33,NE,34,0.0,0.0,84,0.00,,,0.00,,2013-01-26 14:03:00,
2013-01-26 08:12:00,30.0,26.0,30.33,NE,34,0.0,0.0,84,0.00,,,0.00,,2013-01-26 14:12:00,
2013-01-26 08:22:00,30.0,26.0,30.33,NE,34,0.0,0.0,84,0.00,,,0.00,,2013-01-26 14:22:00,
2013-01-26 08:32:00,31.0,27.0,30.33,NE,34,0.0,0.0,85,0.00,,,0.00,,2013-01-26 14:32:00,
2013-01-26 08:43:00,31.0,27.0,30.33,NE,34,0.0,0.0,85,0.00,,,0.00,,2013-01-26 14:43:00,
2013-01-26 08:52:00,33.0,29.0,30.32,NE,34,0.0,0.0,84,0.00,,,0.00,,2013-01-26 14:52:00,
2013-01-26 09:03:00,36.0,31.0,30.32,NE,34,0.0,0.0,81,0.00,,,0.00,,2013-01-26 15:03:00,
2013-01-26 09:12:00,36.0,31.0,30.32,NE,34,0.0,0.0,81,0.00,,,0.00,,2013-01-26 15:12:00,
2013-01-26 09:22:00,39.0,31.0,30.32,NE,34,0.0,0.0,73,0.00,,,0.00,,2013-01-26 15:22:00,
2013-01-26 09:32:00,40.0,32.0,30.33,NE,34,0.0,0.0,74,0.00,,,0.00,,2013-01-26 15:32:00,
2013-01-26 09:43:00,40.0,32.0,30.33,NE,34,0.0,0.0,74,0.00,,,0.00,,2013-01-26 15:43:00,
2013-01-26 09:52:00,43.0,36.0,30.34,South,183,0.0,2.0,75,0.00,,,0.00,,2013-01-26 15:52:00,
2013-01-26 10:02:00,43.0,35.0,30.34,East,100,0.0,4.0,74,0.00,,,0.00,,2013-01-26 16:02:00,
2013-01-26 10:12:00,43.0,35.0,30.34,East,100,0.0,4.0,74,0.00,,,0.00,,2013-01-26 16:12:00,
2013-01-26 10:22:00,44.0,35.0,30.34,East,91,0.0,4.0,71,0.00,,,0.00,,2013-01-26 16:22:00,
2013-01-26 10:33:00,45.0,34.0,30.34,East,92,1.0,4.0,66,0.00,,,0.00,,2013-01-26 16:33:00,
2013-01-26 10:42:00,45.0,34.0,30.34,East,92,1.0,4.0,66,0.00,,,0.00,,2013-01-26 16:42:00,
2013-01-26 10:53:00,46.0,33.0,30.34,ESE,114,2.0,7.0,61,0.00,,,0.00,,2013-01-26 16:53:00,
2013-01-26 11:03:00,47.0,33.0,30.34,SSE,156,2.0,8.0,57,0.00,,,0.00,,2013-01-26 17:03:00,
2013-01-26 11:12:00,47.0,33.0,30.34,SSE,156,2.0,8.0,57,0.00,,,0.00,,2013-01-26 17:12:00,
2013-01-26 11:22:00,48.0,32.0,30.34,East,95,5.0,11.0,54,0.00,,,0.00,,2013-01-26 17:22:00,
2013-01-26 11:33:00,48.0,32.0,30.34,East,86,3.0,6.0,54,0.00,,,0.00,,2013-01-26 17:33:00,
2013-01-26 11:42:00,48.0,32.0,30.34,East,86,3.0,6.0,54,0.00,,,0.00,,2013-01-26 17:42:00,
2013-01-26 11:52:00,48.0,33.0,30.34,ESE,105,2.0,8.0,55,0.00,,,0.00,,2013-01-26 17:52:00,
2013-01-26 12:02:00,49.0,33.0,30.32,SE,130,1.0,6.0,54,0.00,,,0.00,,2013-01-26 18:02:00,
2013-01-26 12:12:00,49.0,33.0,30.32,SE,130,1.0,6.0,54,0.00,,,0.00,,2013-01-26 18:12:00,
2013-01-26 12:22:00,50.0,33.0,30.32,East,91,4.0,8.0,51,0.00,,,0.00,,2013-01-26 18:22:00,
2013-01-26 12:33:00,50.0,32.0,30.31,SE,131,4.0,11.0,49,0.00,,,0.00,,2013-01-26 18:33:00,
2013-01-26 12:42:00,50.0,32.0,30.31,SE,131,4.0,11.0,49,0.00,,,0.00,,2013-01-26 18:42:00,
2013-01-26 12:52:00,50.0,32.0,30.30,ESE,115,2.0,7.0,49,0.00,,,0.00,,2013-01-26 18:52:00,
2013-01-26 13:03:00,50.0,32.0,30.28,SSE,152,2.0,10.0,50,0.00,,,0.00,,2013-01-26 19:03:00,
2013-01-26 13:12:00,50.0,32.0,30.28,SSE,152,2.0,10.0,50,0.00,,,0.00,,2013-01-26 19:12:00,
2013-01-26 13:22:00,50.0,31.0,30.28,ESE,113,4.0,10.0,48,0.00,,,0.00,,2013-01-26 19:22:00,
2013-01-26 13:32:00,52.0,32.0,30.26,SSE,151,1.0,10.0,47,0.00,,,0.00,,2013-01-26 19:32:00,
2013-01-26 13:42:00,52.0,32.0,30.26,SSE,151,1.0,10.0,47,0.00,,,0.00,,2013-01-26 19:42:00,
2013-01-26 13:52:00,52.0,32.0,30.26,SSE,151,1.0,10.0,47,0.00,,,0.00,,2013-01-26 19:52:00,
2013-01-26 14:02:00,53.0,32.0,30.26,South,176,3.0,7.0,44,0.00,,,0.00,,2013-01-26 20:02:00,
2013-01-26 14:11:00,53.0,32.0,30.26,South,176,3.0,7.0,44,0.00,,,0.00,,2013-01-26 20:11:00,
2013-01-26 14:22:00,53.0,32.0,30.25,SSE,151,5.0,10.0,45,0.00,,,0.00,,2013-01-26 20:22:00,
2013-01-26 14:32:00,53.0,33.0,30.24,East,81,2.0,9.0,46,0.00,,,0.00,,2013-01-26 20:32:00,
2013-01-26 14:42:00,53.0,33.0,30.24,East,81,2.0,9.0,46,0.00,,,0.00,,2013-01-26 20:42:00,
2013-01-26 14:52:00,53.0,33.0,30.24,SSE,165,2.0,10.0,47,0.00,,,0.00,,2013-01-26 20:52:00,
2013-01-26 15:02:00,53.0,33.0,30.23,SE,142,3.0,8.0,47,0.00,,,0.00,,2013-01-26 21:02:00,
2013-01-26 15:12:00,53.0,33.0,30.23,SE,142,3.0,8.0,47,0.00,,,0.00,,2013-01-26 21:12:00,
2013-01-26 15:22:00,54.0,34.0,30.23,SE,143,2.0,8.0,46,0.00,,,0.00,,2013-01-26 21:22:00,
2013-01-26 15:32:00,54.0,34.0,30.23,SSE,163,3.0,7.0,46,0.00,,,0.00,,2013-01-26 21:32:00,
2013-01-26 15:42:00,54.0,34.0,30.23,SSE,163,3.0,7.0,46,0.00,,,0.00,,2013-01-26 21:42:00,
2013-01-26 15:51:00,54.0,34.0,30.23,East,101,2.0,8.0,46,0.00,,,0.00,,2013-01-26 21:51:00,
2013-01-26 16:01:00,53.0,34.0,30.23,SW,215,1.0,7.0,48,0.00,,,0.00,,2013-01-26 22:01:00,
2013-01-26 16:11:00,53.0,34.0,30.23,SW,215,1.0,7.0,48,0.00,,,0.00,,2013-01-26 22:11:00,
2013-01-26 16:21:00,52.0,33.0,30.22,SSE,152,1.0,7.0,49,0.00,,,0.00,,2013-01-26 22:21:00,
2013-01-26 16:32:00,52.0,34.0,30.22,SSW,208,2.0,6.0,50,0.00,,,0.00,,2013-01-26 22:32:00,
2013-01-26 16:42:00,52.0,34.0,30.22,SSW,208,2.0,6.0,50,0.00,,,0.00,,2013-01-26 22:42:00,
2013-01-26 16:52:00,51.0,33.0,30.22,SE,142,1.0,7.0,50,0.00,,,0.00,,2013-01-26 22:52:00,
2013-01-26 17:01:00,51.0,34.0,30.23,SSE,166,1.0,8.0,52,0.00,,,0.00,,2013-01-26 23:01:00,
2013-01-26 17:12:00,51.0,34.0,30.23,SSE,166,1.0,8.0,52,0.00,,,0.00,,2013-01-26 23:12:00,
2013-01-26 17:22:00,50.0,34.0,30.23,SSW,205,1.0,8.0,53,0.00,,,0.00,,2013-01-26 23:22:00,
2013-01-26 17:32:00,49.0,33.0,30.23,NE,47,1.0,4.0,54,0.00,,,0.00,,2013-01-26 23:32:00,
2013-01-26 17:42:00,49.0,33.0,30.23,NE,47,1.0,4.0,54,0.00,,,0.00,,2013-01-26 23:42:00,
2013-01-26 17:52:00,49.0,33.0,30.23,East,93,1.0,5.0,54,0.00,,,0.00,,2013-01-26 23:52:00,
2013-01-26 18:02:00,49.0,34.0,30.23,SE,141,0.0,6.0,55,0.00,,,0.00,,2013-01-27 00:02:00,
2013-01-26 18:11:00,49.0,34.0,30.23,SE,141,0.0,6.0,55,0.00,,,0.00,,2013-01-27 00:11:00,
2013-01-26 18:21:00,48.0,32.0,30.23,SSW,194,1.0,7.0,54,0.00,,,0.00,,2013-01-27 00:21:00,
2013-01-26 18:32:00,48.0,31.0,30.23,SSE,155,3.0,9.0,51,0.00,,,0.00,,2013-01-27 00:32:00,
2013-01-26 18:42:00,48.0,31.0,30.23,SSE,155,3.0,9.0,51,0.00,,,0.00,,2013-01-27 00:42:00,
2013-01-26 18:51:00,48.0,31.0,30.23,SSE,154,1.0,8.0,51,0.00,,,0.00,,2013-01-27 00:51:00,
2013-01-26 19:01:00,48.0,30.0,30.23,ESE,117,0.0,4.0,50,0.00,,,0.00,,2013-01-27 01:01:00,
2013-01-26 19:11:00,48.0,30.0,30.23,ESE,117,0.0,4.0,50,0.00,,,0.00,,2013-01-27 01:11:00,
2013-01-26 19:22:00,48.0,30.0,30.22,ENE,72,3.0,6.0,50,0.00,,,0.00,,2013-01-27 01:22:00,
2013-01-26 19:32:00,48.0,30.0,30.22,ESE,108,1.0,5.0,50,0.00,,,0.00,,2013-01-27 01:32:00,
2013-01-26 19:42:00,48.0,30.0,30.22,ESE,108,1.0,5.0,50,0.00,,,0.00,,2013-01-27 01:42:00,
2013-01-26 19:52:00,48.0,30.0,30.22,ESE,108,1.0,7.0,50,0.00,,,0.00,,2013-01-27 01:52:00,
2013-01-26 20:01:00,48.0,30.0,30.22,SE,146,2.0,6.0,50,0.00,,,0.00,,2013-01-27 02:01:00,
2013-01-26 20:12:00,48.0,30.0,30.22,SE,146,2.0,6.0,50,0.00,,,0.00,,2013-01-27 02:12:00,
2013-01-26 20:22:00,47.0,30.0,30.23,ESE,107,2.0,6.0,51,0.00,,,0.00,,2013-01-27 02:22:00,
2013-01-26 20:32:00,47.0,30.0,30.23,SSE,154,1.0,4.0,52,0.00,,,0.00,,2013-01-27 02:32:00,
2013-01-26 20:42:00,47.0,30.0,30.23,SSE,154,1.0,4.0,52,0.00,,,0.00,,2013-01-27 02:42:00,
2013-01-26 20:52:00,47.0,31.0,30.22,East,90,1.0,3.0,53,0.00,,,0.00,,2013-01-27 02:52:00,
2013-01-26 21:02:00,47.0,31.0,30.22,SSW,194,1.0,6.0,54,0.00,,,0.00,,2013-01-27 03:02:00,
2013-01-26 21:11:00,47.0,31.0,30.22,SSW,194,1.0,6.0,54,0.00,,,0.00,,2013-01-27 03:11:00,
2013-01-26 21:21:00,47.0,32.0,30.21,SE,138,1.0,5.0,55,0.00,,,0.00,,2013-01-27 03:21:00,
2013-01-26 21:32:00,47.0,32.0,30.21,SE,132,3.0,5.0,55,0.00,,,0.00,,2013-01-27 03:32:00,
2013-01-26 21:42:00,47.0,32.0,30.21,SE,132,3.0,5.0,55,0.00,,,0.00,,2013-01-27 03:42:00,
2013-01-26 21:51:00,47.0,32.0,30.20,ENE,69,3.0,7.0,55,0.00,,,0.00,,2013-01-27 03:51:00,
2013-01-26 22:02:00,47.0,32.0,30.20,SSE,160,1.0,7.0,56,0.00,,,0.00,,2013-01-27 04:02:00,
2013-01-26 22:11:00,47.0,32.0,30.20,SSE,160,1.0,7.0,56,0.00,,,0.00,,2013-01-27 04:11:00,
2013-01-26 22:21:00,46.0,31.0,30.19,ESE,122,1.0,5.0,56,0.00,,,0.00,,2013-01-27 04:21:00,
2013-01-26 22:32:00,46.0,32.0,30.19,ESE,117,1.0,7.0,57,0.00,,,0.00,,2013-01-27 04:32:00,
2013-01-26 22:41:00,46.0,32.0,30.19,ESE,117,1.0,7.0,57,0.00,,,0.00,,2013-01-27 04:41:00,
2013-01-26 22:51:00,46.0,32.0,30.19,SSE,167,1.0,9.0,59,0.00,,,0.00,,2013-01-27 04:51:00,
2013-01-26 23:03:00,46.0,32.0,30.20,East,82,1.0,7.0,59,0.00,,,0.00,,2013-01-27 05:03:00,
2013-01-26 23:12:00,46.0,32.0,30.20,East,82,1.0,7.0,59,0.00,,,0.00,,2013-01-27 05:12:00,
2013-01-26 23:22:00,46.0,33.0,30.18,SE,143,2.0,7.0,61,0.00,,,0.00,,2013-01-27 05:22:00,
2013-01-26 23:32:00,46.0,34.0,30.18,SE,126,2.0,6.0,63,0.00,,,0.00,,2013-01-27 05:32:00,
2013-01-26 23:41:00,46.0,34.0,30.18,SE,126,2.0,6.0,63,0.00,,,0.00,,2013-01-27 05:41:00,
2013-01-26 23:52:00,46.0,34.0,30.18,SSE,159,2.0,10.0,63,0.00,,,0.00,,2013-01-27 05:52:00,